Terminal Aerodrome Forecast
Issued by NWS

Home | Current Version | Previous Version | Text Only | Print | Product List | Glossary On
Versions: 1 2 3 4 5 6 7 8 9 10 11 12 13 14 15 16 17 18 19 20 21 22 23 24 25 26 27 28 29 30 31 32 33 34 35 36 37 38 39 40 41 42 43 44 45 46 47 48 49 50
000
FTUS44 KLIX 011700 RRA
TAFASD
TAF
KASD 011741Z 0118/0218 16006KT P6SM VCSH SCT025 BKN035
     FM020200 14004KT P6SM BKN025
      TEMPO 0210/0214 5SM BR
     FM021400 15004KT P6SM BKN035=

USA.gov is the U.S. government's official web portal to all federal, state and local government web resources and services.